Terminal Aerodrome Forecast
Issued by NWS Grand Forks, ND

Home | Current Version | Previous Version | Graphics & Text | Print | Product List | Glossary On
Versions: 1 2 3 4 5 6 7 8 9 10 11 12 13 14 15
000
FTUS43 KFGF 191700 CCA
TAFFAR
TAF COR
KFAR 191720Z 1918/2018 31017G24KT P6SM OVC050
     FM200000 31014KT P6SM BKN050
     FM201400 30008KT P6SM SCT250=

USA.gov is the U.S. government's official web portal to all federal, state and local government web resources and services.